Weather History for MMCL - November, 2012

Change the Weather History Date:

Saturday, November 24, 2012

  Actual Average Record
Temperature  
Mean Temperature 77 °F -  
Max Temperature 96 °F 82 °F 96 °F (2012)
Min Temperature 58 °F 57 °F 55 °F (1999)
Cooling Degree Days 12    
Growing Degree Days 27 (Base 50)    
Moisture  
Dew Point 61 °F    
Average Humidity 54    
Maximum Humidity 91    
Minimum Humidity 15    
Precipitation  
Precipitation 0.00 in - - ()
Sea Level Pressure  
Sea Level Pressure 29.93 in    
Wind  
Wind Speed 2 mph ()    
Max Wind Speed 16 mph    
Max Gust Speed -    
Visibility 9.7 miles    
Events      
Averages and records for this station are not official NWS values.
T = Trace of Precipitation, MM = Missing Value Source: Averaged Metar Reports

Daily Weather History Graph

Daily Weather History Graph

Search for Another Location

Airport or City:

Trip Planner

Search our weather history database for the weather conditions in past years. The results will help you decide how hot, cold, wet, or windy it might be!

Date:

Astronomy

Nov. 24, 2012 Rise Set
Actual Time 6:32 AM MST 5:20 PM MST
Civil Twilight 6:08 AM MST 5:44 PM MST
Nautical Twilight 5:40 AM MST 6:12 PM MST
Astronomical Twilight 5:12 AM MST 6:40 PM MST
Moon 2:51 PM MST (11/24) 3:10 AM MST (11/24)
Length of Visible Light 11h 36m
Length of Day
10h 47m
Waxing Gibbous, 87% of the Moon is Illuminated
Nov 24
Waxing Gibbous
Nov 28
Full
Dec 6
Last Quarter
Dec 13
New
Dec 19
First Quarter

Hourly Weather History & Observations

Time (MST) Temp. Heat Index Dew Point Humidity Pressure Visibility Wind Dir Wind Speed Gust Speed Precip Events Conditions
1:46 AM 64 °F - 62 °F 90% 30.02 in 6 mi Calm Calm - -  
4:45 AM 61 °F - 59 °F 91% 29.99 in 6 mi Calm Calm - -  
5:55 AM 64.4 °F - 59.0 °F 83% 29.94 in 10.0 mi Calm Calm - N/A   Clear
6:40 AM 64.4 °F - 59.0 °F 83% 29.96 in 10.0 mi Calm Calm - N/A   Clear
7:35 AM 61 °F - 58 °F 86% 30.01 in 10 mi Calm Calm - -   Haze
7:40 AM 68.0 °F - 59.0 °F 73% 29.94 in 10.0 mi Calm Calm - N/A   Clear
8:40 AM 75.2 °F - 55.4 °F 50% 29.98 in 10.0 mi Calm Calm - N/A   Clear
9:40 AM 82.4 °F 82.0 °F 57.2 °F 42% 29.98 in 10.0 mi Calm Calm - N/A   Clear
10:41 AM 87.8 °F 87.6 °F 60.8 °F 40% 29.95 in 10.0 mi Calm Calm - N/A   Clear
10:45 AM 90 °F - 54 °F 19% 30.02 in 10 mi SW 2.2 mph - -  
11:40 AM 91.4 °F 92.1 °F 62.6 °F 38% 29.94 in 10.0 mi Calm Calm - N/A   Clear
12:44 PM 93.2 °F 94.9 °F 64.4 °F 38% 29.91 in 10.0 mi WNW 11.5 mph - N/A   Clear
1:40 PM 94 °F - 52 °F 15% 29.95 in 10 mi SW 2.2 mph - -  
1:40 PM 93.2 °F 94.9 °F 64.4 °F 38% 29.90 in 10.0 mi WNW 13.8 mph - N/A   Clear
2:40 PM 93.2 °F 94.9 °F 64.4 °F 38% 29.86 in 10.0 mi WNW 16.1 mph - N/A   Clear
3:40 PM 93.2 °F 94.9 °F 64.4 °F 38% 29.85 in 10.0 mi West 11.5 mph - N/A   Clear
4:35 PM 90 °F - 57 °F 23% 29.93 in 10 mi SW 2.2 mph - -  
4:41 PM 93.2 °F 94.9 °F 64.4 °F 38% 29.85 in 10.0 mi West 8.1 mph - N/A   Clear
5:41 PM 82.4 °F 82.9 °F 60.8 °F 48% 29.86 in 10.0 mi Calm Calm - N/A   Clear
6:43 PM 78.8 °F - 62.6 °F 57% 29.87 in 10.0 mi WNW 5.8 mph - N/A   Clear
7:40 PM 77.0 °F - 64.4 °F 65% 29.90 in 10.0 mi Calm Calm - N/A   Clear
8:40 PM 75.2 °F - 64.4 °F 69% 29.91 in 10.0 mi Calm Calm - N/A   Clear
9:40 PM 73.4 °F - 62.6 °F 69% 29.91 in 10.0 mi Calm Calm - N/A   Clear